Wind_Speed
15 14 13 12 11 10 10 9 9 8 8 8 7 7 6 6 6 5 5 5 5 5 5 5 5 5 6 6 7 7 8 8 9 9 9 10 10 11 11 11 12 13 13
17 16 15 14 13 12 12 11 10 10 10 9 9 8 8 7 7 7 6 6 6 6 7 7 7 7 7 8 8 9 9 10 10 10 11 12 12 13 13 13 13 14 14
19 17 16 15 15 14 13 13 12 12 11 11 10 10 9 9 9 9 8 8 8 8 8 8 9 9 9 9 10 10 11 11 11 12 12 12 13 13 14 14 15 15 16
20 19 18 17 16 15 15 14 13 13 12 12 12 11 10 10 10 10 10 9 9 10 10 10 10 10 11 11 11 12 12 12 13 13 13 14 14 14 15 15 16 16 17
21 20 19 19 18 17 16 15 15 14 14 13 13 12 12 11 11 11 11 11 11 11 12 12 11 11 12 12 12 12 13 13 14 14 15 15 16 16 16 17 17 18 18
23 21 20 19 19 18 17 17 16 16 15 14 14 14 13 12 12 12 13 13 13 13 13 13 13 13 14 14 14 14 15 15 16 16 17 17 17 18 18 18 19 19 19
24 23 22 21 20 19 19 18 17 17 16 16 15 15 14 14 14 14 14 14 15 15 15 15 15 15 16 16 16 16 16 17 18 18 18 19 19 19 19 20 20 20 21
25 25 24 23 22 21 20 19 19 18 18 17 16 16 15 15 15 15 16 16 16 17 17 17 17 17 17 17 17 17 18 18 19 19 20 20 20 20 21 21 22 22 22
25 26 26 25 24 23 22 21 20 19 19 18 18 17 17 17 17 17 17 18 18 18 18 18 18 18 18 18 18 19 19 20 20 21 22 22 22 22 23 23 23 24 24
26 25 27 27 25 25 24 22 21 21 20 20 19 18 18 18 18 18 18 18 19 19 19 19 19 19 20 20 20 20 20 21 21 22 23 23 24 24 25 25 25 26 26
28 26 26 26 26 26 25 24 23 22 22 21 20 19 19 19 19 19 19 19 19 20 20 20 20 21 21 21 21 21 21 22 23 23 24 25 26 26 27 27 27 28 28
29 27 27 26 26 26 26 25 24 24 23 22 21 20 20 20 20 20 20 20 21 21 21 21 21 22 22 22 22 22 23 23 24 24 25 26 27 28 29 29 29 29 30
29 27 27 26 26 26 27 26 26 25 24 23 21 21 20 20 20 20 20 21 21 21 21 21 22 22 23 23 23 23 24 24 24 25 25 26 27 28 29 29 30 30 30
29 28 26 26 27 27 27 26 26 26 25 24 23 22 21 21 21 21 21 22 22 22 22 22 23 24 24 24 25 25 25 25 25 26 26 27 28 28 29 29 30 31 31
29 28 27 26 27 27 27 27 26 26 24 24 23 23 23 22 22 22 23 23 23 24 24 24 24 24 25 25 25 26 26 27 27 28 28 28 28 28 29 30 31 31 32
30 30 29 29 28 27 27 27 26 25 24 24 24 23 23 23 23 23 24 24 25 26 26 26 26 26 26 26 27 27 28 28 29 29 29 30 30 30 30 30 31 31 32
30 30 30 29 28 28 28 27 26 25 25 24 25 24 24 24 24 25 25 26 27 27 28 28 28 28 28 28 29 29 30 30 30 31 31 31 31 31 31 32 31 31 32
30 30 30 29 28 28 27 26 26 26 25 25 26 26 25 26 26 26 27 28 28 29 29 30 30 30 30 30 30 30 31 31 32 32 32 32 33 33 33 33 33 33 33
30 29 29 30 28 27 27 27 28 27 27 27 28 28 27 27 27 28 29 29 29 30 30 31 31 31 32 32 32 32 32 33 33 34 34 34 34 34 33 33 33 33 33
28 29 29 30 29 27 26 27 28 28 29 28 29 29 30 29 28 28 29 29 29 30 31 32 32 32 33 33 33 33 33 34 34 35 35 35 34 34 34 34 35 35 35
28 29 29 29 28 28 27 27 28 27 28 30 30 31 31 31 30 30 30 30 30 31 32 32 33 34 34 34 34 34 34 34 34 35 35 35 35 35 35 35 36 36 37
27 28 28 28 28 28 27 26 26 27 29 31 32 32 33 33 33 31 31 32 32 33 33 33 33 34 34 35 35 35 34 34 35 35 35 35 35 35 35 36 37 38 38
27 28 29 27 27 28 28 28 27 28 29 31 31 31 32 33 34 33 33 33 34 34 34 34 34 34 35 35 35 35 36 35 36 36 36 36 36 36 36 36 37 37 37
27 29 29 29 28 29 29 29 29 30 31 32 33 32 33 34 35 35 34 34 34 35 35 35 35 35 35 35 35 36 36 36 36 35 36 36 36 37 37 37 37 37 39
28 28 29 30 30 30 30 31 31 32 32 33 34 36 36 36 36 36 36 36 36 35 35 35 36 36 36 35 35 35 36 36 36 36 35 36 37 37 38 38 38 39 39
29 29 30 30 31 31 31 32 33 33 33 34 35 36 36 37 38 37 36 36 35 35 34 34 36 37 37 36 36 36 36 36 36 36 36 36 37 38 38 39 40 40 41
Wind_Direction
230 230 232 233 234 235 236 234 234 234 229 228 230 233 236 238 241 242 246 250 255 257 261 265 270 274 276 276 275 275 275 276 277 278 279 278 277 277 277 276 276 276 276
232 233 234 235 236 237 237 234 234 234 233 235 238 240 243 244 247 249 250 253 257 260 265 268 270 271 273 275 277 276 276 277 278 279 279 278 277 277 277 277 277 277 276
234 235 236 236 237 237 238 236 233 235 236 238 242 246 248 249 251 253 254 256 258 261 265 268 271 272 273 276 278 278 278 278 279 280 281 280 279 278 278 277 277 277 277
235 236 237 237 236 236 238 238 235 237 238 240 244 246 247 250 252 254 255 258 261 265 267 270 273 274 276 277 280 281 281 281 281 281 281 282 281 280 279 278 278 279 279
234 235 236 237 236 235 236 240 236 238 240 242 244 245 245 248 251 254 257 260 264 267 269 271 275 276 277 278 280 282 282 282 282 283 283 282 281 280 279 279 279 279 279
233 235 235 235 235 235 236 239 235 237 240 241 244 245 246 248 252 256 259 263 266 267 268 270 274 276 278 280 280 281 281 282 283 284 284 283 282 281 280 281 280 280 280
231 234 235 234 235 235 236 238 236 236 239 241 244 247 248 251 253 258 261 263 265 267 269 271 274 276 278 279 280 281 281 282 282 282 283 283 283 283 282 282 281 281 281
231 234 235 234 235 235 237 238 237 236 239 240 244 248 251 254 256 259 261 263 265 268 270 272 274 276 277 278 280 281 282 283 283 283 282 282 282 282 282 282 282 281 281
232 233 235 233 232 235 237 237 236 238 240 241 244 249 253 256 258 261 263 265 266 268 270 272 274 275 277 278 280 281 282 283 284 284 283 281 281 281 281 281 281 280 280
233 234 233 231 231 234 236 237 237 239 241 243 246 250 255 258 260 262 264 266 266 268 269 271 273 275 277 277 280 282 283 283 284 284 284 283 282 281 281 281 281 280 280
232 234 233 231 232 233 234 235 236 239 241 243 246 251 255 258 261 263 264 266 267 268 268 270 272 275 277 279 280 282 283 284 284 285 284 283 282 282 281 281 281 281 281
232 233 233 232 233 234 233 233 235 239 240 243 246 250 254 258 261 263 266 267 269 269 269 271 272 274 276 279 280 282 282 283 284 285 285 284 283 282 281 281 281 281 281
231 231 230 231 233 233 232 232 236 239 239 242 246 250 255 258 261 263 266 267 270 269 270 272 273 274 276 278 280 281 283 283 283 285 286 285 285 284 283 282 281 281 281
230 231 229 231 232 233 234 233 236 238 238 241 245 250 255 258 261 265 267 268 269 270 271 272 273 274 275 277 278 280 282 283 284 285 286 286 285 285 284 283 283 282 281
230 229 229 232 233 234 235 235 237 239 239 242 246 251 257 260 263 265 267 268 270 270 271 273 274 276 277 277 278 279 281 283 284 285 286 286 286 285 285 285 284 283 282
229 229 229 231 233 234 235 235 237 239 241 244 248 253 258 261 263 266 268 269 272 272 271 272 273 274 276 277 278 279 280 282 282 283 284 285 285 285 286 286 285 284 283
230 232 232 233 234 237 237 237 238 241 243 246 251 255 258 262 265 268 270 271 273 273 272 272 272 273 274 276 277 279 280 280 280 282 283 283 283 284 286 286 285 285 283
232 234 234 234 236 238 239 239 240 243 247 248 252 257 261 265 267 269 270 272 273 273 272 272 272 273 274 276 278 279 280 279 280 281 282 282 283 283 284 285 284 284 285
233 236 237 237 237 239 242 242 246 249 251 253 254 258 264 268 269 269 271 272 273 273 272 271 272 272 275 276 279 279 280 280 280 280 281 282 282 283 283 283 283 283 284
234 237 239 238 238 241 245 247 250 253 255 257 257 261 264 267 269 271 272 273 274 274 274 272 272 273 274 277 278 279 280 280 280 280 281 281 282 282 282 283 283 283 284
236 237 240 241 241 243 248 251 253 255 258 260 260 263 266 267 270 273 273 272 273 274 275 275 274 274 275 276 277 279 280 281 281 281 282 282 282 283 283 284 283 284 284
239 241 244 243 244 246 251 255 258 259 261 262 264 266 267 267 268 270 272 273 273 274 274 274 274 275 276 277 277 278 279 281 281 282 283 283 283 284 284 285 285 285 284
242 244 244 246 248 252 254 256 259 262 264 265 267 269 268 269 270 271 272 273 273 273 274 274 274 275 276 278 279 279 278 279 280 282 283 282 282 284 285 285 285 285 285
244 245 247 249 251 254 256 258 259 262 264 266 268 270 271 270 271 272 273 274 275 274 273 274 275 276 278 280 280 280 280 280 280 281 282 282 282 284 285 286 286 286 286
248 248 249 251 254 256 258 259 261 264 266 268 270 271 272 274 274 274 274 275 274 275 275 275 276 278 280 280 280 280 280 281 281 281 282 283 284 285 286 287 287 287 287
249 250 252 255 258 260 262 261 263 264 266 267 269 271 272 273 274 274 275 275 274 275 275 276 276 277 278 279 279 280 281 281 282 283 282 282 283 285 286 286 287 288 288
Height
5865 5866 5866 5867 5868 5868 5869 5870 5870 5871 5871 5871 5871 5871 5872 5872 5872 5872 5872 5872 5872 5872 5872 5871 5871 5871 5871 5871 5870 5870 5869 5869 5869 5868 5868 5868 5867 5867 5866 5866 5866 5865 5865
5862 5863 5864 5864 5865 5866 5866 5867 5868 5869 5869 5869 5870 5870 5870 5870 5870 5870 5870 5870 5870 5870 5870 5870 5870 5869 5869 5869 5868 5868 5868 5867 5867 5866 5866 5865 5865 5865 5864 5864 5863 5863 5862
5858 5859 5860 5861 5862 5863 5864 5865 5865 5866 5867 5867 5867 5868 5868 5868 5868 5868 5868 5868 5868 5868 5868 5868 5868 5867 5867 5867 5866 5866 5865 5865 5864 5864 5863 5863 5862 5862 5862 5861 5860 5860 5859
5854 5855 5857 5858 5859 5860 5861 5862 5863 5864 5864 5865 5865 5865 5866 5866 5866 5866 5866 5866 5866 5866 5866 5866 5865 5865 5864 5864 5864 5863 5863 5862 5862 5861 5861 5860 5860 5859 5859 5858 5858 5857 5856
5850 5852 5853 5854 5856 5857 5858 5859 5860 5861 5861 5862 5862 5863 5863 5863 5864 5864 5864 5864 5863 5863 5863 5863 5863 5862 5862 5861 5861 5861 5860 5860 5859 5858 5858 5857 5857 5856 5855 5855 5854 5854 5853
5846 5848 5849 5851 5852 5853 5854 5855 5856 5858 5858 5859 5859 5860 5860 5860 5861 5861 5861 5861 5861 5861 5860 5860 5860 5860 5859 5859 5858 5858 5857 5857 5856 5855 5854 5854 5853 5853 5852 5851 5851 5850 5849
5842 5843 5845 5847 5848 5849 5850 5852 5853 5854 5855 5856 5856 5857 5857 5857 5857 5858 5858 5858 5858 5857 5857 5857 5857 5856 5856 5855 5855 5854 5854 5853 5852 5852 5851 5850 5850 5849 5848 5848 5847 5846 5846
5837 5839 5841 5842 5844 5845 5846 5848 5849 5850 5851 5852 5853 5853 5854 5854 5854 5854 5854 5854 5854 5854 5854 5853 5853 5853 5852 5852 5851 5851 5850 5849 5849 5848 5847 5846 5846 5845 5844 5843 5843 5842 5841
5832 5834 5835 5837 5839 5840 5842 5843 5845 5846 5847 5849 5849 5850 5850 5850 5850 5850 5850 5850 5850 5850 5850 5849 5849 5849 5848 5848 5847 5847 5846 5845 5844 5843 5843 5842 5841 5840 5839 5839 5838 5837 5836
5827 5829 5830 5832 5834 5836 5837 5839 5841 5842 5844 5845 5845 5846 5846 5846 5846 5846 5846 5846 5846 5846 5845 5845 5845 5845 5844 5844 5843 5843 5842 5841 5840 5839 5838 5837 5836 5835 5834 5834 5833 5832 5831
5822 5823 5825 5827 5829 5831 5832 5834 5836 5838 5839 5840 5841 5841 5842 5842 5842 5842 5842 5842 5842 5841 5841 5841 5841 5840 5840 5839 5839 5838 5837 5836 5835 5834 5833 5832 5831 5830 5829 5828 5827 5826 5825
5816 5818 5820 5822 5824 5826 5827 5829 5831 5833 5834 5835 5836 5837 5837 5838 5838 5837 5837 5837 5837 5837 5836 5836 5836 5836 5835 5835 5834 5833 5832 5831 5830 5829 5828 5827 5825 5824 5823 5822 5821 5820 5819
5810 5812 5814 5817 5818 5821 5822 5824 5826 5827 5829 5830 5832 5832 5833 5833 5833 5833 5832 5832 5832 5832 5832 5831 5831 5831 5830 5830 5829 5828 5827 5826 5825 5824 5822 5821 5820 5818 5817 5816 5815 5814 5813
5805 5808 5809 5812 5813 5815 5817 5819 5821 5823 5824 5826 5827 5828 5828 5828 5828 5828 5828 5827 5827 5827 5827 5827 5826 5826 5825 5824 5823 5823 5822 5820 5819 5818 5817 5815 5814 5812 5811 5810 5808 5807 5806
5800 5803 5805 5807 5808 5810 5812 5814 5816 5818 5819 5821 5822 5823 5823 5823 5823 5823 5823 5822 5822 5822 5822 5821 5821 5820 5820 5819 5818 5817 5816 5815 5813 5812 5811 5809 5808 5806 5805 5803 5802 5801 5799
5795 5798 5800 5802 5804 5805 5806 5808 5810 5812 5814 5816 5817 5818 5818 5818 5818 5818 5818 5817 5817 5817 5816 5816 5815 5815 5814 5813 5812 5811 5810 5809 5807 5806 5805 5803 5802 5800 5798 5797 5795 5794 5792
5790 5792 5795 5797 5799 5801 5802 5803 5804 5807 5808 5810 5812 5813 5813 5813 5813 5812 5812 5812 5811 5811 5811 5810 5809 5808 5808 5807 5806 5805 5804 5802 5801 5799 5798 5796 5795 5793 5791 5790 5788 5787 5785
5785 5788 5790 5792 5794 5796 5797 5798 5800 5801 5803 5804 5806 5807 5807 5807 5807 5806 5806 5806 5805 5805 5804 5804 5803 5802 5801 5800 5799 5798 5797 5795 5794 5792 5790 5789 5787 5786 5784 5782 5781 5779 5778
5780 5783 5785 5787 5789 5791 5792 5794 5795 5796 5797 5799 5800 5801 5801 5801 5800 5800 5800 5799 5798 5798 5797 5796 5796 5795 5794 5793 5792 5791 5789 5788 5786 5785 5783 5781 5780 5778 5776 5775 5773 5771 5770
5775 5778 5781 5783 5784 5786 5787 5789 5790 5791 5792 5793 5794 5794 5794 5794 5794 5794 5793 5792 5792 5791 5790 5789 5788 5788 5787 5786 5785 5783 5782 5780 5778 5777 5775 5773 5772 5770 5768 5767 5765 5763 5762
5771 5774 5776 5778 5780 5781 5782 5784 5784 5785 5786 5787 5787 5788 5788 5787 5787 5787 5786 5786 5785 5784 5783 5782 5781 5780 5779 5778 5777 5776 5774 5772 5770 5768 5767 5765 5764 5762 5760 5758 5757 5755 5753
5767 5769 5771 5773 5774 5775 5776 5777 5778 5779 5780 5780 5781 5781 5781 5780 5780 5780 5779 5778 5777 5776 5776 5775 5774 5772 5771 5770 5769 5768 5766 5765 5762 5760 5759 5757 5755 5753 5752 5750 5748 5746 5744
5763 5764 5765 5767 5768 5769 5770 5771 5772 5773 5773 5773 5773 5773 5773 5773 5773 5772 5772 5771 5770 5769 5768 5767 5766 5765 5764 5762 5761 5759 5758 5757 5755 5753 5750 5748 5747 5745 5743 5741 5739 5737 5735
5757 5759 5760 5762 5763 5763 5764 5765 5765 5766 5766 5766 5766 5766 5766 5765 5765 5764 5764 5763 5762 5761 5760 5759 5758 5756 5755 5754 5752 5751 5749 5748 5746 5745 5743 5740 5738 5736 5734 5732 5730 5728 5725
5751 5753 5754 5755 5756 5757 5758 5758 5758 5758 5758 5758 5758 5758 5758 5757 5757 5756 5756 5755 5754 5753 5751 5750 5749 5748 5746 5745 5744 5742 5740 5739 5737 5736 5734 5732 5729 5727 5725 5723 5720 5718 5715
5745 5747 5748 5749 5750 5750 5750 5751 5751 5751 5751 5751 5751 5750 5750 5749 5749 5748 5747 5746 5745 5744 5743 5742 5740 5739 5738 5736 5735 5733 5731 5730 5728 5726 5724 5722 5720 5718 5715 5713 5710 5708 5705